sat.trackr.live / text

‹ back to catalog

STARLINK-32424

NORAD 61548 · 2024-184S

PAYLOAD ACTIVE UNKNOWN

§ Identity

Operator
Country
US
Launch date
2024-10-15
Launch site
AFWTR
Launch vehicle
Mass (kg)
RCS (m²)

Purposes: comms

External: N2YO · Heavens-Above · Gunter

§ Orbital elements

Epoch: 2026-09-21T00:57:03.002976Z

Period
93.85 min
Inclination
53.1595°
Eccentricity
0.0001730
Mean motion
15.34382513 rev/d
Perigee alt
461.6 km
Apogee alt
463.9 km
Semi-major
6,840.9 km
B*
8.3150e-6
RAAN
183.1799°
Arg perigee
72.2609°
Mean anomaly
287.8583°
Rev number
10,846

§ Raw data

STARLINK-324241 61548U 24184S   26264.03961809 -.00000096  00000+0  83150-5 0  99962 61548  53.1595 183.1799 0001730  72.2609 287.8583 15.34382513108464

JSON: /api/v1/satellites/61548 · /tle

For live sub-satellite position, see the globe view (requires WebGL).

§ Visibility from observer

Set your observer location to see the next 7 days of passes ≥ 10°. The values pass through the URL so the page stays shareable.

No JS? Fill the form by hand. The geolocation button needs JavaScript.